Regional Weather Roundup
Issued by NWS Newport/Morehead, NC

Current Version | Previous Version | Graphics & Text | Print | Product List | Glossary Off
Versions: 1 2 3 4 5 6 7 8 9 10 11 12 13 14 15 16 17 18 19 20 21 22 23 24 25 26 27 28 29 30 31 32 33 34 35 36 37 38 39 40 41 42 43 44 45 46 47 48 49 50

000
ASUS42 KMHX 221325
RWRMHX
WEATHER ROUNDUP FOR EASTERN NORTH CAROLINA
NATIONAL WEATHER SERVICE NEWPORT/MOREHEAD CITY NC
900 AM EDT MON MAY 22 2017

NOTE: "FAIR" INDICATES FEW OR NO CLOUDS BELOW 12,000 FEET
WITH NO SIGNIFICANT WEATHER AND/OR OBSTRUCTIONS TO VISIBILITY

NCZ015>017-031-032-045>047-102-103-221400-
NORTH COAST

CITY           SKY/WX    TMP DP  RH WIND       PRES   REMARKS
EDENTON        CLOUDY    74  70  86 S6        30.09R
ELIZABETH CITY PTSUNNY   75  72  90 S9        30.08S
KITTY HAWK     NOT AVBL
MANTEO         PTSUNNY   73  68  87 S8        30.09F

$$

NCZ045>047-081-094-103-104-221400-
CENTRAL COAST

CITY           SKY/WX    TMP DP  RH WIND       PRES   REMARKS
FRISCO         CLOUDY    75  69  81 SE5       30.10S

$$

NCZ095-097-098-100-101-221400-
SOUTHERN COAST

CITY           SKY/WX    TMP DP  RH WIND       PRES   REMARKS
BEAUFORT       CLOUDY    77  73  87 S10       30.09S
CEDAR ISLAND   NOT AVBL
JACKSONVILLE   PTSUNNY   78  71  79 SW12      30.08S
PINEY ISLAND   CLOUDY   N/A N/A N/A S8        30.09S
WILMINGTON     CLOUDY    78  69  73 SW10      30.09R


$$

NCZ011>013-027>030-043-044-078>080-089-090>093-098-221400-
COASTAL PLAIN

CITY           SKY/WX    TMP DP  RH WIND       PRES   REMARKS
AHOSKIE        LGT RAIN  67  66  97 SE3       30.07F
CLINTON        MOSUNNY   75  71  87 S7        30.06F
ELIZABETHTOWN  CLOUDY    74  70  87 S7        30.07F
GOLDSBORO      CLOUDY    73  73 100 S10       30.04F
GREENVILLE     CLOUDY    73  70  88 S9        30.08S
HAVELOCK       CLOUDY    77  70  78 S8        30.10S
KENANSVILLE    MOSUNNY   75  70  83 SW7       30.07F
KINSTON        CLOUDY    73  70  88 SW9       30.07F
NEW BERN       PTSUNNY   76  71  85 S9        30.10S
RICHLANDS      CLOUDY    76  70  82 S9        30.09R
ROCKY MOUNT    LGT RAIN  69  69 100 VRB6      30.04F FOG
WASHINGTON     PTSUNNY   73  69  86 S6        30.08S
WHITEVILLE     CLOUDY    74  70  87 S6        30.08S

$$

AMZ130-135-150-152-154-156-158-170-250-252-270-ANZ085-086-088-633-658-670-221400-
MARINE OBSERVATIONS

STATION/POSITION TIME  TEMP    WIND        PRES    WAVE   SWELL
                       AIR SEA DIR/SP/G            HT/PER HT/PER
                 (UTC) (F)     (DEG/KT/KT) (MB)    (FT/S) (FT/S)
CHESAPEAKE LIGHT NOT AVBL
64 E VA BEACH    1250   70 69  160/  8/ 10 1019.9    5/ 7   5/ 7
DUCK             1300   68 66  160/ 11/ 11 1018.2
2 E DUCK         1300      66                N/A     4/ 7
OREGON INLET     1300   71 69  140/  5/  8 1018.9
13E OREGON INLT  1248      65                N/A     4/ 7   3/ 7
HATTERAS CG      1300   74 74  150/  5/  7 1019.1
DIAMOND BUOY     1250   74 78  140/  6/  8 1019.3    4/ 8   5/ 8
CAPE LOOKOUT     1300   74     170/  4/  5 1018.9
BEAUFORT LAB     1300   75 73  190/  7/  8 1018.3
30 SE NEW RVR IN 1308   76 76  240/ 12/ 17 1019.3
30 SE NEW RVR IN 1313      76                N/A     3/ 8
27 SE WRIGHTSVLE 1308   76 75  200/ 12/ 17 1018.5
5 SE WRIGHTSVLE  1308   76 75  210/  8/ 14 1018.9
225 S CAPE HAT   1250   75 77  220/  8/ 10 1020.6    3/10   3/10
41 SE CHARLESTON 1310   77 77  200/ 12/ 16 1018.9

$$




USA.gov is the U.S. government's official web portal to all federal, state and local government web resources and services.